Overview Statistics Trail Chart Weather Telemetry Raw packets
 

This is the latest recevied weather packets stored in our database for station/object N1HQ. If no packets are shown the sender has not sent any weather packets the latest 10 day(s).

<< 121 122 123 124 125 126 127 >>
Time Temp. Humidity Pressure Rain* Wind** Luminosity Snow
1787753188 30° C 84% 1015 hPa 0 mm - - -
1787752938 29.44° C 86% 1015 hPa 0 mm - - -
1787752678 29.44° C 84% 1015 hPa 0 mm - - -
1787752381 29.44° C 86% 1014.9 hPa 0 mm - - -
1787752128 28.89° C 85% 1014.8 hPa 0 mm - - -
1787751843 28.89° C 85% 1014.7 hPa 0 mm - - -
1787751583 28.89° C 85% 1014.7 hPa 0 mm - - -
1787751323 28.89° C 86% 1014.6 hPa 0 mm - - -
1787751078 28.33° C 88% 1014.6 hPa 0 mm - - -
1787750813 28.33° C 87% 1014.7 hPa 0 mm - - -
1787750563 28.33° C 89% 1014.7 hPa 0 mm - - -
1787750313 28.33° C 89% 1014.8 hPa 0 mm - - -
1787750048 28.33° C 91% 1014.8 hPa 0 mm - - -
1787749753 27.78° C 89% 1014.7 hPa 0 mm - - -
1787749508 27.78° C 89% 1014.7 hPa 0 mm - - -
1787749268 27.78° C 90% 1014.7 hPa 0 mm - - -
1787748978 27.78° C 92% 1014.5 hPa 0 mm - - -
1787748703 27.22° C 92% 1014.5 hPa 0 mm - - -
1787748408 26.67° C 93% 1014.6 hPa 0 mm - - -
1787748152 26.11° C 93% 1014.6 hPa 0 mm - - -
1787747873 26.11° C 96% 1014.6 hPa 0 mm - - -
1787747608 26.11° C 98% 1014.7 hPa 0 mm - - -
1787747343 25.56° C 99% 1014.7 hPa 0 mm - - -
1787747071 25.56° C 99% 1014.7 hPa 0 mm - - -
1787746831 25.56° C 10% - 0 mm - - -

* Rain latest hour (hover to see other rain measurements)
** Current wind speed in m/s (hover to see current wind gust speed)